Regional Weather Roundup
Issued by NWS

Home | Current Version | Previous Version | Graphics & Text | Print | Product List | Glossary On
Versions: 1 2 3 4 5 6 7 8 9 10 11 12 13 14 15 16 17 18 19 20 21 22 23 24 25 26 27 28 29 30 31 32 33 34 35 36 37 38 39 40 41 42 43 44 45 46 47 48 49 50
000
ASUS44 KMEG 240410
RWRTN
TENNESSEE HOURLY STATE WEATHER ROUNDUP
NATIONAL WEATHER SERVICE MEMPHIS TN
1000 PM CST MON JAN 23 2017

TNZ002-004-019-021-049-052-054-088>092-240500-
WEST TENNESSEE

CITY           SKY/WX    TMP DP  RH WIND       PRES   REMARKS
MEMPHIS INTL   CLEAR     43  38  82 CALM      29.86S
NWS MEMPHIS      N/A     40 N/A N/A MISG        N/A
JACKSON        CLEAR     39  36  89 CALM      29.87R
DYERSBURG      CLEAR     37  34  87 CALM      29.87R
UNION CITY     CLEAR     37  37 100 CALM      29.85R
PARIS          CLOUDY    39  34  81 CALM      29.85S
HUNTINGDON     CLOUDY    45  36  70 CALM      29.85R
$$

TNZ008-025-027-028-033-062-065-066-240500-
NORTH MIDDLE TENNESSEE

CITY           SKY/WX    TMP DP  RH WIND       PRES   REMARKS
NASHVILLE      CLOUDY    43  35  73 NW12      29.84R
PORTLAND       CLOUDY    41  37  87 NW6       29.83R
CLARKSVILLE    CLOUDY    42  34  73 NW10      29.85S
SMYRNA         CLOUDY    43  37  79 N10       29.85R
GALLATIN       CLOUDY    43  36  75 NW10G18   29.87R
CROSSVILLE     CLOUDY    38  37  97 NW9       29.75R FOG     WCI  31
$$

TNZ061-075-076-078-094-096-097-240500-
SOUTH MIDDLE TENNESSEE

CITY           SKY/WX    TMP DP  RH WIND       PRES   REMARKS
TULLAHOMA      CLOUDY    43  37  81 N7        29.81R
WINCHESTER     CLOUDY    43  39  87 N6        29.79R
MCMINNVILLE    CLOUDY    41  39  93 NW8         N/A
COLUMBIA       CLOUDY    43  41  93 N6        29.82S
SHELBYVILLE    CLOUDY    46  39  76 NW8       29.83R
$$

TNZ017-018-042-046-047-240500-
NORTHEAST TENNESSEE

CITY           SKY/WX    TMP DP  RH WIND       PRES   REMARKS
TRI CITIES     CLOUDY    47  43  86 W10G20    29.59R
ELIZABETHTON   LGT RAIN  46  45  93 W10G20    29.57R
$$

TNZ012-013-036-069-073-074-240500-
CENTRAL EAST TENNESSEE

CITY           SKY/WX    TMP DP  RH WIND       PRES   REMARKS
KNOXVILLE      CLOUDY    45  40  82 W15       29.71R
OAK RIDGE      CLOUDY    45  40  82 VRB5      29.73R
GATLINBURG     CLOUDY    45  41  87 W10       29.70R
MORRISTOWN     CLOUDY    46  43  87 NW10G17   29.67R
JACKSBORO      CLOUDY    45  41  87 VRB5G14   29.73R
$$

TNZ083-085-099-240500-
SOUTHEAST TENNESSEE

CITY           SKY/WX    TMP DP  RH WIND       PRES   REMARKS
CHATTANOOGA    CLOUDY    47  40  76 N8        29.78R
$$

SKY/WX REPORTED AS FAIR MEANS FEW OR NO CLOUDS BELOW
12 THOUSAND FEET.





USA.gov is the U.S. government's official web portal to all federal, state and local government web resources and services.